Hourly Data Report for January 08, 2004

TORONTO CITY
ONTARIO

43°40'00.000" N
79°24'00.000" W
112.50 m
6158355
71508
XTO

Download Data

Hourly Data (January 2004)
Hourly Data Report for January 8, 2004
TIME
LST
Temp Definition
°C
Dew Point Definition
°C
Rel Hum Definition
%
Precip. Amount Definition
mm

Wind Dir Definition
10's deg

Wind Spd Definition
km/h
Visibility Definition
km
Stn Press Definition
kPa
Hmdx Definition


Wind Chill Definition


Weather Definition


00:00 -10.2 -12.1 86   LegendMM LegendMM LegendMM 100.98     LegendNANA
01:00 -11.1 -13.1 85   LegendMM LegendMM LegendMM 101.01     LegendNANA
02:00 -11.5 -14.1 81   LegendMM LegendMM LegendMM 101.04     LegendNANA
03:00 -11.5 -14.0 82   LegendMM LegendMM LegendMM 101.04     LegendNANA
04:00 -11.5 -13.9 82   LegendMM LegendMM LegendMM 101.01     LegendNANA
05:00 -11.3 -13.7 82   LegendMM LegendMM LegendMM 100.98     LegendNANA
06:00 -10.9 -13.1 84   LegendMM LegendMM LegendMM 100.95     LegendNANA
07:00 -10.2 -12.2 85   LegendMM LegendMM LegendMM 100.93     LegendNANA
08:00 -9.8 -11.9 85   LegendMM LegendMM LegendMM 100.96     LegendNANA
09:00 -8.6 -11.6 79   LegendMM LegendMM LegendMM 100.98     LegendNANA
10:00 -6.5 -10.7 72   LegendMM LegendMM LegendMM 100.98     LegendNANA
11:00 -4.5 -10.2 64   LegendMM LegendMM LegendMM 101.00     LegendNANA
12:00 -4.5 -10.0 65   LegendMM LegendMM LegendMM 100.96     LegendNANA
13:00 -3.4 -9.2 64   LegendMM LegendMM LegendMM 100.91     LegendNANA
14:00 -3.5 -8.6 68   LegendMM LegendMM LegendMM 100.90     LegendNANA
15:00 -6.6 -10.9 71   LegendMM LegendMM LegendMM 101.02     LegendNANA
16:00 -8.1 -14.7 59   LegendMM LegendMM LegendMM 101.08     LegendNANA
17:00 -8.5 -14.2 63   LegendMM LegendMM LegendMM 101.12     LegendNANA
18:00 -9.6 -15.0 65   LegendMM LegendMM LegendMM 101.20     LegendNANA
19:00 -10.1 -14.5 70   LegendMM LegendMM LegendMM 101.27     LegendNANA
20:00 -10.1 -14.4 71   LegendMM LegendMM LegendMM 101.31     LegendNANA
21:00 -11.1 -15.0 73   LegendMM LegendMM LegendMM 101.36     LegendNANA
22:00 -11.8 -15.5 74   LegendMM LegendMM LegendMM 101.41     LegendNANA
23:00 -13.4 -18.9 63   LegendMM LegendMM LegendMM 101.46     LegendNANA

Notes on Data Quality.

Legend

  • E = Estimated
  • M = Missing
  • NA = Not Available*
  • [empty] = Indicates an unobserved value
Date modified: